Content
SEND FEEDBACK

Daily
Averages
Monthly
Summary
United States of America

MAYNARD, MASSACHUSETTS


Home > North America > United States > Massachusetts
Elevation: 207 feet     Latitude: 42 25N     Longitude: 071 28W

WEATHER
 
SELECT A DAY
Number of Records: 197,204;   Date Range: 1/1/95 - 8/15/14
 
SHARE

PRINT THIS DATA

[ ← Previous Day ]
WEATHER ALMANAC - JANUARY 23, 2013
[ Next Day → ]
[ °C ]   °F
Weather ElementAverageHighLow
Temperature9.6 °F15.1 °F (1:56 pm)3.9 °F (11:56 pm)
Dewpoint-10.2 °F-2.9 °F (3:56 am)-13 °F (2:56 pm)
Humidity41.5 %61 % (3:56 am)28 % (2:56 pm)
Barometer30.15 in30.18 in (8:56 am)30.10 in (1:56 pm)
Wind Speed9.7 mph16.1 mph (8:56 am)
Wind Gust25.3 mph (12:56 pm)
Weather ElementAverage
Visibility10 mi
Wind DirectionWNW (276.5 °)

Weather ElementTotal
Precipitation---
Heating Degree Days55.5 (Base 65)
Averaged from 23 records on January 23, 2013
WEATHER CONDITIONS BREAKOUT
WIND DIRECTION BREAKOUT
WEATHER BY HOUR - JANUARY 23, 2013
[ °C ]   °F
Local TimeTemperatureDewpointHumidityBarometerVisibilityWind DirectionWind SpeedGust SpeedPrecipitationEventsConditions
1:56 AM10.0 °F-7.1 °F46 %30.12 in10.0 miWest (270°)11.5 mphClear
2:56 AM8.1 °F-6.0 °F53 %30.13 in10.0 miWSW (240°)5.8 mphClear
3:56 AM8.1 °F-2.9 °F61 %30.13 in10.0 miWest (260°)9.2 mphClear
4:56 AM8.1 °F-6.0 °F53 %30.14 in10.0 miWest (260°)10.4 mphClear
5:56 AM8.1 °F-8.0 °F48 %30.15 in10.0 miWest (270°)6.9 mphClear
6:56 AM7.0 °F-9.9 °F46 %30.16 in10.0 miWest (270°)8.1 mphClear
7:56 AM8.1 °F-9.0 °F46 %30.17 in10.0 miWest (270°)11.5 mph17.3 mphClear
8:56 AM9.0 °F-11.0 °F40 %30.18 in10.0 miWest (270°)16.1 mph23.0 mphClear
9:56 AM10.9 °F-11.0 °F37 %30.18 in10.0 miNW (310°)16.1 mph21.9 mphClear
10:56 AM12.0 °F-9.9 °F37 %30.17 in10.0 miWest (280°)10.4 mph21.9 mphClear
11:56 AM12.9 °F-11.0 °F34 %30.14 in10.0 miWest (280°)16.1 mph24.2 mphClear
12:56 PM14.0 °F-11.9 °F31 %30.11 in10.0 miWNW (300°)16.1 mph25.3 mphClear
1:56 PM15.1 °F-11.9 °F29 %30.10 in10.0 miWest (280°)9.2 mph20.7 mphClear
2:56 PM15.1 °F-13.0 °F28 %30.12 in10.0 miWNW (290°)11.5 mph23.0 mphClear
3:56 PM12.9 °F-13.0 °F31 %30.12 in10.0 miWNW (290°)11.5 mphClear
4:56 PM10.9 °F-13.0 °F33 %30.14 in10.0 miWest (270°)8.1 mphClear
5:56 PM10.0 °F-13.0 °F35 %30.16 in10.0 miWest (270°)4.6 mphClear
6:56 PM9.0 °F-11.0 °F40 %30.17 in10.0 miWNW (300°)9.2 mphClear
7:56 PM8.1 °F-11.0 °F42 %30.18 in10.0 miWest (280°)6.9 mphClear
8:56 PM8.1 °F-11.0 °F42 %30.18 in10.0 miWNW (290°)8.1 mph17.3 mphClear
9:56 PM6.1 °F-11.0 °F45 %30.18 in10.0 miWest (270°)4.6 mphClear
10:56 PM5.0 °F-11.0 °F48 %30.18 in10.0 miWest (270°)4.6 mphClear
11:56 PM3.9 °F-11.0 °F50 %30.17 in10.0 miWest (270°)6.9 mphClear
Hourly data recorded from KBED, located miles away from Maynard, Massachusetts







STORIES FROM OUR PARTNERS